Flag for Germany Weather past 2 weeks in Soltau, Lower Saxony, Germany

Now
57 °F

Passing clouds.


Feels Like: 56 °F
Forecast: 58 / 89 °F
Wind: 7 mph from West

Location: Fassberg

Current Time: Aug 5, 2015 at 4:37:15 AM

Latest Report: Aug 5, 2015 at 3:20 AM


Visibility: 5 mi

Pressure: 30.07 "Hg

Humidity: 100%

Dew point: 57 °F

Location of SoltauLocation

Historic Weather in Soltau — Graph

°F

Soltau temperature yesterday

Maximum temperature yesterday: 88 °F (at 1:20 PM)
Minimum temperature yesterday: 59 °F (at 5:20 AM)
Average temperature yesterday: 71 °F

Past Weeks' High & Low Weather Summary

 TemperatureHumidityPressure
High88 °F (Aug 3, 5:00 PM)100% (Jul 21, 3:20 AM)30.15 "Hg (Jul 21, 3:20 AM)
Low41 °F (Aug 1, 3:20 AM)31% (Aug 3, 5:20 PM)29.45 "Hg (Jul 25, 2:20 PM)
Average63 °F74%29.85 "Hg
* Reported Jul 21 3:20 AM — Aug 5 3:20 AM, Soltau, Weather by CustomWeather, © 2015

Note: Actual official high and low records may vary slightly from our data, if they occured in-between our weather recording intervals... More about our weather records

Advertising

Soltau weather history for previous 24 hours

 ConditionsComfort  
Time TempWeatherWind HumidityBarometerVisibility
3:20 AM
Wed, Aug 5
57 °FPassing clouds.7 mph100%30.07 "Hg5 mi
2:20 AM59 °FPassing clouds.6 mph94%30.07 "HgN/A
1:20 AM61 °FPartly cloudy.8 mph94%30.04 "HgN/A
12:20 AM61 °FPartly cloudy.7 mph94%30.04 "HgN/A
11:20 PM
Tue, Aug 4
63 °FPartly cloudy.13 mph88%30.01 "HgN/A
10:47 PM64 °FPartly cloudy.18 mph94%29.98 "HgN/A
10:20 PM66 °FPartly cloudy.3 mph94%29.98 "Hg4 mi
9:20 PM66 °FBroken clouds.6 mph94%29.95 "HgN/A
8:20 PM66 °FBroken clouds.7 mph94%29.95 "HgN/A
7:20 PM68 °FSprinkles. Broken clouds.7 mph88%29.92 "HgN/A
6:20 PM68 °FSprinkles. Broken clouds.12 mph94%29.92 "Hg5 mi
5:50 PM68 °FRain showers. Partly sunny.12 mph94%29.92 "Hg2 mi
5:20 PM72 °FThunderstorms. Partly sunny.13 mph78%29.89 "Hg4 mi
4:56 PM75 °FRain showers. Broken clouds.15 mph61%29.86 "Hg5 mi
4:20 PM81 °FPartly sunny.16 mph48%29.83 "HgN/A
3:20 PM84 °FBroken clouds.9 mph48%29.83 "HgN/A
2:20 PM88 °FBroken clouds.9 mph38%29.80 "HgN/A
1:20 PM88 °FBroken clouds.12 mph38%29.83 "HgN/A
12:20 PM86 °FPartly sunny.10 mph46%29.86 "HgN/A
11:20 AM82 °FPartly sunny.6 mph48%29.86 "HgN/A
10:20 AM82 °FPartly sunny.5 mph45%29.89 "HgN/A
9:20 AM77 °FPartly sunny.6 mph57%29.89 "HgN/A
8:20 AM73 °FPartly sunny.5 mph61%29.89 "HgN/A
7:20 AM64 °FScattered clouds.5 mph78%29.89 "HgN/A
6:20 AM59 °FPassing clouds.6 mph88%29.92 "HgN/A
5:20 AM59 °FPassing clouds.6 mph88%29.92 "HgN/A
4:20 AM61 °FPassing clouds.5 mph83%29.92 "HgN/A
Weather by CustomWeather, © 2015

See weather overviewHow to use our weather pages